When you browse on this site, cookies collect data to enhance your experience and personalize the content and advertising you see.
Visit our Privacy Policy to learn more. By continuing to use the site, you agree to this use of cookies and data.
  • în România
  • Lista ţărilor
  • Pe 7 zile
  • Temperatura apei
  • Meteo pe hartă
  • Widget-uri
  • user-avatar
    Intrare

    Meteo pe oră la Punakha

    Astăzi, 23 Februarie, Duminică

    Timp Temperatura Precipitaţii Vânt Presiune Umiditate
    00:00 +7°C° 0 mm 1 m/s 585 mmHg 89%
    01:00 +6°C° 0.1 mm 1 m/s 585 mmHg 87%
    02:00 +6°C° 0.1 mm 1 m/s 584 mmHg 85%
    03:00 +4°C° 0.1 mm 2 m/s 584 mmHg 84%
    04:00 +4°C° 0 mm 2 m/s 584 mmHg 82%
    05:00 +3°C° 0 mm 2 m/s 584 mmHg 80%
    06:00 +4°C° 0 mm 2 m/s 584 mmHg 83%
    07:00 +7°C° 0 mm 1 m/s 585 mmHg 75%
    08:00 +9°C° 0 mm 1 m/s 587 mmHg 68%
    09:00 +11°C° 0 mm 1 m/s 588 mmHg 61%
    10:00 +12°C° 0 mm 1 m/s 588 mmHg 55%
    11:00 +14°C° 0 mm 2 m/s 588 mmHg 50%
    12:00 +14°C° 0 mm 3 m/s 588 mmHg 40%
    13:00 +14°C° 0.2 mm 3 m/s 587 mmHg 43%
    14:00 +13°C° 0.2 mm 3 m/s 586 mmHg 46%
    15:00 +13°C° 0.2 mm 3 m/s 586 mmHg 49%
    16:00 +12°C° 0.4 mm 2 m/s 585 mmHg 62%
    17:00 +10°C° 0.4 mm 1 m/s 584 mmHg 75%
    18:00 +8°C° 0.4 mm 1 m/s 583 mmHg 88%
    19:00 +8°C° 0.4 mm 1 m/s 583 mmHg 89%
    20:00 +7°C° 0.4 mm 1 m/s 584 mmHg 90%
    21:00 +7°C° 0.4 mm 1 m/s 584 mmHg 91%
    22:00 +7°C° 0.3 mm 1 m/s 584 mmHg 91%
    23:00 +6°C° 0.3 mm 1 m/s 584 mmHg 92%

    Mâine, 24 Februarie, Luni

    Timp Temperatura Precipitaţii Vânt Presiune Umiditate
    00:00 +6°C° 0.3 mm 1 m/s 584 mmHg 92%
    01:00 +6°C° 0.2 mm 1 m/s 583 mmHg 91%
    02:00 +6°C° 0.2 mm 1 m/s 583 mmHg 91%
    03:00 +6°C° 0.2 mm 1 m/s 582 mmHg 90%
    04:00 +5°C° 0.1 mm 1 m/s 582 mmHg 90%
    05:00 +5°C° 0.1 mm 1 m/s 582 mmHg 89%
    06:00 +5°C° 0.1 mm 1 m/s 582 mmHg 88%
    07:00 +7°C° 0 mm 1 m/s 583 mmHg 82%
    08:00 +8°C° 0 mm 1 m/s 584 mmHg 76%
    09:00 +10°C° 0 mm 1 m/s 585 mmHg 69%
    10:00 +11°C° 0.2 mm 1 m/s 585 mmHg 64%
    11:00 +13°C° 0.2 mm 2 m/s 586 mmHg 58%
    12:00 +14°C° 0.2 mm 2 m/s 586 mmHg 53%
    13:00 +14°C° 0.3 mm 2 m/s 585 mmHg 54%
    14:00 +13°C° 0.3 mm 3 m/s 584 mmHg 56%
    15:00 +12°C° 0.3 mm 3 m/s 583 mmHg 58%
    16:00 +10°C° 0.6 mm 2 m/s 582 mmHg 70%
    17:00 +9°C° 0.6 mm 1 m/s 581 mmHg 81%
    18:00 +7°C° 0.6 mm 1 m/s 580 mmHg 93%
    19:00 +7°C° 0.2 mm 1 m/s 581 mmHg 92%
    20:00 +6°C° 0.2 mm 1 m/s 581 mmHg 92%
    21:00 +6°C° 0.2 mm 1 m/s 582 mmHg 91%
    22:00 +6°C° 0.1 mm 1 m/s 582 mmHg 90%
    23:00 +6°C° 0.1 mm 1 m/s 582 mmHg 88%

    Poimâine, 25 Februarie, Marţi

    Timp Temperatura Precipitaţii Vânt Presiune Umiditate
    00:00 +5°C° 0.1 mm 1 m/s 582 mmHg 87%
    01:00 +5°C° 0 mm 1 m/s 582 mmHg 84%
    02:00 +4°C° 0 mm 2 m/s 581 mmHg 82%
    03:00 +3°C° 0 mm 2 m/s 581 mmHg 79%
    04:00 +3°C° 0 mm 2 m/s 581 mmHg 77%
    05:00 +3°C° 0 mm 2 m/s 581 mmHg 75%
    06:00 +3°C° 0 mm 2 m/s 580 mmHg 73%
    07:00 +5°C° 0 mm 2 m/s 582 mmHg 68%
    08:00 +8°C° 0 mm 1 m/s 583 mmHg 64%
    09:00 +10°C° 0 mm 1 m/s 584 mmHg 59%
    10:00 +10°C° 0.2 mm 1 m/s 584 mmHg 60%
    11:00 +11°C° 0.2 mm 1 m/s 584 mmHg 62%
    12:00 +12°C° 0.2 mm 2 m/s 584 mmHg 63%
    13:00 +10°C° 0.5 mm 2 m/s 583 mmHg 70%
    14:00 +10°C° 0.5 mm 2 m/s 582 mmHg 77%
    15:00 +9°C° 0.5 mm 2 m/s 581 mmHg 83%
    16:00 +8°C° 1.1 mm 2 m/s 581 mmHg 88%
    17:00 +7°C° 1.1 mm 2 m/s 580 mmHg 93%
    18:00 +6°C° 1.1 mm 2 m/s 580 mmHg 98%
    19:00 +7°C° 0.9 mm 1 m/s 581 mmHg 98%
    20:00 +7°C° 0.9 mm 1 m/s 581 mmHg 98%
    21:00 +5°C° 0.9 mm 0 m/s 581 mmHg 98%
    22:00 +5°C° 0.7 mm 0 m/s 581 mmHg 96%
    23:00 +5°C° 0.7 mm 0 m/s 581 mmHg 95%

    26 Februarie, Miercuri

    Timp Temperatura Precipitaţii Vânt Presiune Umiditate
    00:00 +5°C° 0.7 mm 0 m/s 581 mmHg 93%
    01:00 +5°C° 0.2 mm 0 m/s 581 mmHg 93%
    02:00 +6°C° 0.2 mm 1 m/s 581 mmHg 92%
    03:00 +6°C° 0.2 mm 1 m/s 581 mmHg 91%
    04:00 +5°C° 0 mm 1 m/s 580 mmHg 88%
    05:00 +4°C° 0 mm 1 m/s 580 mmHg 86%
    06:00 +3°C° 0 mm 2 m/s 580 mmHg 83%
    07:00 +4°C° 0.1 mm 2 m/s 581 mmHg 82%
    08:00 +6°C° 0.1 mm 2 m/s 582 mmHg 81%
    09:00 +8°C° 0.1 mm 1 m/s 583 mmHg 81%
    10:00 +8°C° 0.6 mm 2 m/s 582 mmHg 82%
    11:00 +8°C° 0.6 mm 2 m/s 582 mmHg 84%
    12:00 +9°C° 0.6 mm 2 m/s 582 mmHg 85%
    13:00 +9°C° 0.8 mm 2 m/s 582 mmHg 85%
    14:00 +9°C° 0.8 mm 2 m/s 581 mmHg 85%
    15:00 +9°C° 0.8 mm 2 m/s 580 mmHg 84%
    16:00 +7°C° 1 mm 2 m/s 580 mmHg 89%
    17:00 +7°C° 1 mm 1 m/s 580 mmHg 94%
    18:00 +6°C° 1 mm 1 m/s 580 mmHg 98%
    19:00 +6°C° 0.5 mm 1 m/s 580 mmHg 96%
    20:00 +5°C° 0.5 mm 1 m/s 581 mmHg 93%
    21:00 +5°C° 0.5 mm 1 m/s 581 mmHg 91%
    22:00 +4°C° 0 mm 1 m/s 581 mmHg 88%
    23:00 +3°C° 0 mm 2 m/s 580 mmHg 85%

    27 Februarie, Joi

    Timp Temperatura Precipitaţii Vânt Presiune Umiditate
    00:00 +2°C° 0 mm 2 m/s 580 mmHg 82%
    01:00 +2°C° 0 mm 2 m/s 580 mmHg 81%
    02:00 0°C° 0 mm 3 m/s 579 mmHg 79%
    03:00 0°C° 0 mm 3 m/s 579 mmHg 78%
    04:00 0°C° 0 mm 3 m/s 579 mmHg 76%
    05:00 0°C° 0 mm 3 m/s 579 mmHg 75%
    06:00 0°C° 0 mm 3 m/s 579 mmHg 73%
    07:00 +3°C° 0 mm 2 m/s 581 mmHg 70%
    08:00 +7°C° 0 mm 1 m/s 582 mmHg 67%
    09:00 +9°C° 0 mm 1 m/s 584 mmHg 63%
    10:00 +11°C° 0 mm 1 m/s 584 mmHg 62%
    11:00 +12°C° 0 mm 1 m/s 585 mmHg 60%
    12:00 +13°C° 0 mm 2 m/s 585 mmHg 58%
    13:00 +14°C° 0.1 mm 2 m/s 584 mmHg 58%
    14:00 +14°C° 0.1 mm 2 m/s 584 mmHg 59%
    15:00 +14°C° 0.1 mm 2 m/s 584 mmHg 59%
    16:00 +12°C° 0.1 mm 1 m/s 583 mmHg 68%
    17:00 +9°C° 0.1 mm 1 m/s 582 mmHg 77%
    18:00 +6°C° 0.1 mm 0 m/s 581 mmHg 86%
    19:00 +6°C° 0 mm 1 m/s 581 mmHg 80%
    20:00 +5°C° 0 mm 2 m/s 582 mmHg 74%
    21:00 +3°C° 0 mm 3 m/s 582 mmHg 67%
    22:00 +3°C° 0 mm 3 m/s 582 mmHg 65%
    23:00 +3°C° 0 mm 4 m/s 582 mmHg 63%

    28 Februarie, Vineri

    Timp Temperatura Precipitaţii Vânt Presiune Umiditate
    00:00 +1°C° 0 mm 4 m/s 582 mmHg 60%
    01:00 +1°C° 0 mm 4 m/s 581 mmHg 59%
    02:00 0°C° 0 mm 4 m/s 581 mmHg 58%
    03:00 0°C° 0 mm 4 m/s 580 mmHg 57%
    04:00 0°C° 0 mm 4 m/s 580 mmHg 55%
    05:00 0°C° 0 mm 4 m/s 580 mmHg 54%
    06:00 -1°C° 0 mm 4 m/s 580 mmHg 53%
    07:00 +3°C° 0 mm 3 m/s 582 mmHg 50%
    08:00 +7°C° 0 mm 2 m/s 584 mmHg 47%
    09:00 +11°C° 0 mm 1 m/s 585 mmHg 44%
    10:00 +13°C° 0 mm 1 m/s 586 mmHg 43%
    11:00 +14°C° 0 mm 2 m/s 586 mmHg 42%
    12:00 +15°C° 0 mm 2 m/s 586 mmHg 41%
    13:00 +15°C° 0 mm 2 m/s 585 mmHg 42%
    14:00 +15°C° 0 mm 2 m/s 585 mmHg 43%
    15:00 +15°C° 0 mm 2 m/s 584 mmHg 44%
    16:00 +13°C° 0.1 mm 1 m/s 583 mmHg 57%
    17:00 +10°C° 0.1 mm 1 m/s 582 mmHg 70%
    18:00 +6°C° 0.1 mm 0 m/s 581 mmHg 83%
    19:00 +7°C° 0.1 mm 1 m/s 581 mmHg 81%
    20:00 +5°C° 0.1 mm 2 m/s 581 mmHg 78%
    21:00 +3°C° 0.1 mm 3 m/s 582 mmHg 76%
    22:00 +3°C° 0 mm 3 m/s 582 mmHg 74%
    23:00 +3°C° 0 mm 3 m/s 582 mmHg 73%
    Arată mai mult